Preview of NWS' New Version of Forecast
This preview is not operational and should not be used for support decisions.

Regional Weather Roundup (RWR)

Issued by National Weather Service (NWS)

                            
000
ASUS42 KTBW 161817
RWRFL 
FLORIDA REGIONAL WEATHER ROUNDUP
NATIONAL WEATHER SERVICE TAMPA BAY RUSKIN FL
200 PM EDT MON SEP 16 2019

NOTE: "FAIR" INDICATES FEW OR NO CLOUDS BELOW 12,000 FEET WITH NO
SIGNIFICANT WEATHER AND/OR OBSTRUCTIONS TO VISIBILITY.

FLZ001>010-012>015-112-114-115-161900-
PANHANDLE FLORIDA
  
CITY           SKY/WX    TMP DP  RH WIND       PRES   REMARKS
PENSACOLA      NOT AVBL                                               
CRESTVIEW      FAIR      95  66  38 CALM      30.05F HX  98           
DUKE FIELD     FAIR      95  64  35 CALM      30.03F HX  97           
VALPARAISO     FAIR      91  75  60 S10       30.03F HX 101           
MARY ESTHER    MOSUNNY   89  78  70 S9        30.02F HX 102           
TRI COUNTY     FAIR      96  67  38 VRB5      30.03F HX 100           
PANAMA CITY    FAIR      91  72  53 NW6       30.02F HX  98           
TYNDALL AFB    FAIR      89  71  54 CALM      30.01F HX  95           
APALACHICOLA   FAIR      88  71  57 S8        30.04S                  

STATION/POSITION SKY/WX   TEMP    WIND        PRES    WAVE   SWELL
                          AIR SEA DIR/SP/G            HT/PER HT/PER
                          (F)     (DEG/KT/KT) (MB)    (FT/S) (FT/S)
30.1N   87.6W              83 86  130/  2/  2 1017.6F   2/ 5   2/ 5
29.2N   88.2W              83     120/ 14/ 19 1017.6R   3/ 5   2/ 5
28.8N   86.0W                 86   90/ 10/ 12 1016.9F   2/ 5   2/ 5
PANAMA CITY BEAC           84 87  180/  5/  6 1017.6
TOWER C                    82      60/  5/  6 1016.9F
28.5N   84.5W              83      40/  2/  4 1017.0F   2/ 4   2/ 4

$$
FLZ011-016>038-118-127-128-134-139-239-161900-
NORTH FLORIDA
  
CITY           SKY/WX    TMP DP  RH WIND       PRES   REMARKS
MARIANNA       FAIR      95  68  41 NE9       30.02F HX  99           
TALLAHASSEE    PTSUNNY   93  72  50 NE9       30.01F HX 101           
PERRY          FAIR      90  73  57 N7        30.00F HX  97           
LIVE OAK       MOSUNNY   91  68  46 VRB7G14   29.99F HX  95           
CROSS CITY       N/A     91  71  52 NE10      29.99F HAZE    HX  97   
LAKE CITY      FAIR      88  68  51 NE6       30.00F                  
GAINESVILLE    FAIR      92  65  40 NE12      30.00F                  
WILLISTON      FAIR      91  69  49 NE9       29.98F HX  95           
PALATKA        FAIR      86  72  62 N9G16     29.98S                  
MAYPORT NAS    FAIR      87  72  60 N16G24    29.98F                  
JACKSONVILLE   PTSUNNY   91  68  46 NE17G24   29.97F HX  95           
JAX NAS        PTSUNNY   91  69  48 NE12      29.98F HX  96           
JAX CECIL      PTSUNNY   91  72  52 N8        29.98F HX  98           
FERNANDINA BEA FAIR      87  72  60 NE17      29.99S                  
ST AUGUSTINE   FAIR      84  32  15 N16G23    29.98F                  
PALM COAST     PTSUNNY   88  75  66 N18       29.97S HX  97           

STATION/POSITION SKY/WX   TEMP    WIND        PRES    WAVE   SWELL
                          AIR SEA DIR/SP/G            HT/PER HT/PER
                          (F)     (DEG/KT/KT) (MB)    (FT/S) (FT/S)
SHELL POINT      NOT AVBL
KEATON BEACH               89     360/  3/  7 1016.0F
CEDAR KEY                  86      60/  4/  6 1015.8F
FERNANDINA                 90 83  360/ 12/ 16 1016.2F
30.7N   81.3W                 83                N/A     5/10   2/11
MAYPORT                    82 83   10/ 13/ 19 1016.0
31.4N   80.9W              82 83   20/ 17/ 21 1014.8F   5/ 6   3/10
ST AUGUSTINE               82 84  350/ 20/ 22 1015.0F

$$
FLZ040-043>046-052-053-057-058-063-144-161900-
INTERIOR CENTRAL FLORIDA
  
CITY           SKY/WX    TMP DP  RH WIND       PRES   REMARKS
OCALA          FAIR      91  72  53 N12       29.98F HX  98           
LEESBURG       FAIR      93  74  53 NW9       29.97F HX 103           
SANFORD        FAIR      88  75  65 N12       29.95F HX  97           
ORLANDO EXEC   FAIR      91  71  51 N12       29.95F HX  97           
ORLANDO INTL   FAIR      91  73  55 N9        29.94F HX  99           
KISSIMMEE      FAIR      91  75  59 NW15      29.96F HX 101           
WINTER HAVEN   FAIR      92  73  53 N6        29.97F HX 100           
LAKELAND       PTSUNNY   90  73  58 W7        29.98F HX  98           
BARTOW         MOSUNNY   90  73  58 NW8       29.96F HX  98           
SEBRING        FAIR      90  74  59 NW8       29.96F HX  99           
OKEECHOBEE     FAIR      90  73  58 NW8       29.95S HX  98           

$$
FLZ041-047-054-059-064-141-147-161900-
EAST CENTRAL FLORIDA
  
CITY           SKY/WX    TMP DP  RH WIND       PRES   REMARKS
ORMOND BEACH   MOSUNNY   86  77  74 N14G22    29.96F HX  97           
DAYTONA BEACH  FAIR      87  76  69 N14G25    29.96F HX  97           
DELAND         FAIR      88  73  62 N14       29.95F HX  96           
NEW SMYRNA BEA MOSUNNY   86  75  70 N17G29    29.96F HX  95           
JFK SPACE CTR  PTSUNNY   88  75  66 N13G24    29.94S HX  97           
TITUSVILLE     MOSUNNY   91  75  59 NE18      29.95F HX 102           
CAPE CANAVERAL FAIR      89  80  74 N14G24    29.93S HX 104           
PATRICK AFB    FAIR      89  78  68 N13       29.93F HX 103           
MELBOURNE      FAIR      93  76  57 N14       29.93  HX 105           
VERO BEACH     FAIR      92  74  55 N14       29.94S HX 101           
FT PIERCE      PTSUNNY   90  75  61 N8        29.93F HX 100           
STUART         MOSUNNY   88  77  70 N9        29.95F HX 100           

STATION/POSITION SKY/WX   TEMP    WIND        PRES    WAVE   SWELL
                          AIR SEA DIR/SP/G            HT/PER HT/PER
                          (F)     (DEG/KT/KT) (MB)    (FT/S) (FT/S)
28.5N   80.2W              81 85  350/ 17/ 29 1014.0R   9/10   8/10
28.9N   78.5W              80 81  300/ 14/ 19 1011.1F  13/11  11/11
TRIDENT PIER               87 84  350/ 12/ 17 1015.4
28.4N   80.5W                 83                N/A     4/11   2/11
27.5N   80.2W                 84                N/A     6/10   3/11

$$
FLZ050-056-061-142-242-148-248-149-249-151-251-155-255-
160-260-161900-
WEST CENTRAL FLORIDA
  
CITY           SKY/WX    TMP DP  RH WIND       PRES   REMARKS
CRYSTAL RIVER  PTSUNNY   91  72  52 CALM      29.97F HX  98           
INVERNESS      FAIR      91  73  55 N9        29.98S HX 100           
BROOKSVILLE    FAIR      94  73  50 VRB5      29.98F HX 103           
CLEARWATER AIR FAIR      86  75  70 NW8       29.98F HX  95           
ST PETE CLEARW FAIR      91  71  51 NW12      29.97F HX  97           
TAMPA INTL     PTSUNNY   90  72  55 SW9       29.97F HX  97           
TAMPA EXEC     PTSUNNY   88  75  66 CALM      29.98F HX  97           
PLANT CITY     FAIR      91  77  62 N5        29.99F HX 105           
MACDILL AFB    FAIR      89  75  62 NW7       29.97F HX  99           
PETER O KNIGHT CLOUDY    88  77  70 W5        29.98S HX 100           
ST PETERSBURG  CLOUDY    87  75  67 S8        29.96F HX  96           
SARASOTA       FAIR      91  77  63 W12       29.97S HX 104           
VENICE         FAIR      90  75  62 W13       29.99S HX 100           

STATION/POSITION SKY/WX   TEMP    WIND        PRES    WAVE   SWELL
                          AIR SEA DIR/SP/G            HT/PER HT/PER
                          (F)     (DEG/KT/KT) (MB)    (FT/S) (FT/S)
27.3N   84.2W                 86                N/A     2/ 4
CLEARWATER BEACH           83 86  320/ 10/ 11 1015.8
MIDDLE TAMPA BAY           84     280/  3/  5 1015.8
VENICE                     84 86  290/ 13/ 14 1015.2F

$$
FLZ066-069-070-075>078-162-262-165-265-161900-
SOUTHWEST FLORIDA AND KEYS
  
CITY           SKY/WX    TMP DP  RH WIND       PRES   REMARKS
PUNTA GORDA    FAIR      90  73  57 N9        29.98F HX  98           
FT MYERS       FAIR      92  72  51 NW7       29.96F HX  99           
SOUTHWEST INTL PTSUNNY   90  74  59 N7        29.96F HX  99           
NAPLES         FAIR      89  75  63 W12       29.98S HX  99           
MARCO ISLAND   FAIR      88  74  63 W14       29.98F HX  96           
IMMOKALEE      FAIR      93  73  52 NW6G13    29.94F HX 102           
MARATHON       FAIR      90  77  65 NW13      29.98F HX 103           
KEY WEST NAS   FAIR      91  77  63 W15       29.99F HX 104           
KEY WEST INTL  FAIR      90  79  70 NW14      29.99F HX 106           

STATION/POSITION SKY/WX   TEMP    WIND        PRES    WAVE   SWELL
                          AIR SEA DIR/SP/G            HT/PER HT/PER
                          (F)     (DEG/KT/KT) (MB)    (FT/S) (FT/S)
NAPLES                     84 87  300/  9/ 11 1015.4
26.0N   85.6W              85 87  240/  4/  6 1016.7F   3/ 6   3/ 6
DRY TORTUGAS               85     320/  9/ 10 1015.9F
SAND KEY                   85     290/ 12/ 14 1014.5F
SOMBRERO KEY               86     300/ 13/ 17 1015.3F
LONG KEY                   85                 1014.2F

$$
FLZ067-068-071>074-168-172>174-161900-
SOUTHEAST FLORIDA 
  
CITY           SKY/WX    TMP DP  RH WIND       PRES   REMARKS
W PALM BEACH   PTSUNNY   89  74  60 W13       29.94F HX  98           
BOCA RATON     MOSUNNY   91  73  55 NW16      29.94F HX 100           
FT LAUDER-EXEC FAIR      91  73  55 W9G17     29.94F HX  99           
FT LAUDERDALE  FAIR      91  73  55 W10G20    29.93F HX  99           
POMPANO BEACH  FAIR      94  72  48 W15       29.94F HX 102           
PEMBROKE PINES FAIR      94  72  48 W13G20    29.96F HX 102           
OPA LOCKA      FAIR      92  73  53 W13       29.95F HX 100           
MIAMI          PTSUNNY   93  72  50 NW9       29.95F HX 101           
WEST KENDALL   FAIR      92  75  57 W10       29.94F HX 103           
HOMESTEAD      FAIR      93  75  56 W14       29.94F HX 104           

STATION/POSITION SKY/WX   TEMP    WIND        PRES    WAVE   SWELL
                          AIR SEA DIR/SP/G            HT/PER HT/PER
                          (F)     (DEG/KT/KT) (MB)    (FT/S) (FT/S)
VIRGINIA KEY               90 87  260/  7/ 12 1014.1
LAKE WORTH                 88 85  280/  7/ 12 1015.0
FOWEY ROCKS                87 85  290/ 10/ 11 1014.3F
SETTLEMENT POINT           83     290/ 14/ 16 1013.6F

$$